Lid_Strength_Index
6 5 4 4 4 4 4 4 3 3 2 1 1 1 1 1 2 7 9 7 4 0 -0 4 6 5 7 8 7 8 12 14 14 13 11 9 10 9 8 9 8 7 8 7 6
6 5 5 4 4 4 4 4 3 2 2 2 1 1 1 1 5 8 4 -1 -1 -2 6 7 8 5 9 10 9 10 12 14 11 10 11 11 11 10 11 11 11 10 7 6 6
6 5 5 5 5 4 4 4 3 2 2 2 1 1 1 2 9 9 1 -2 -2 1 5 7 8 8 10 11 12 12 13 11 10 10 9 10 11 10 11 12 10 10 10 9 8
7 6 5 5 5 4 4 4 3 3 2 2 1 1 1 6 13 8 -1 -1 -1 4 7 8 8 10 12 13 11 11 10 10 10 9 9 11 10 10 9 9 8 8 8 8 9
7 6 5 5 5 4 4 4 3 3 2 2 1 1 6 10 10 6 -0 2 5 6 8 9 9 11 12 11 10 11 11 10 10 10 11 9 11 11 11 8 7 7 7 8 8
8 6 5 5 5 4 4 4 4 4 3 2 1 1 9 12 7 7 6 6 6 7 8 8 10 10 11 11 12 10 10 11 11 11 11 11 12 11 11 9 8 8 9 8 8
8 5 5 5 5 4 4 4 4 4 3 2 1 5 10 10 8 8 7 7 7 7 8 8 9 10 10 11 11 10 13 12 12 13 12 11 13 13 10 8 9 9 9 9 8
8 5 4 5 5 4 5 4 4 4 3 2 2 8 11 7 8 7 7 7 6 7 7 7 7 9 11 11 11 13 15 17 14 12 11 11 15 11 9 9 10 9 8 8 8
8 5 4 4 5 5 5 5 4 3 3 3 7 9 12 5 8 7 8 7 7 7 7 5 7 11 10 12 14 14 17 16 14 12 11 12 14 12 9 9 10 10 10 9 9
8 5 4 4 4 5 5 5 5 5 5 5 6 10 9 10 8 7 7 6 7 7 8 9 11 14 14 15 17 15 16 15 16 13 12 13 14 12 11 10 11 11 11 10 10
8 5 4 4 4 5 7 7 9 10 9 11 10 10 9 7 6 7 7 6 7 9 13 12 14 16 15 14 13 14 15 16 15 11 12 13 13 12 12 12 12 11 11 11 10
7 5 4 4 4 5 7 8 7 9 12 9 9 9 7 7 9 8 6 9 10 13 12 14 15 12 11 12 13 14 15 16 15 12 11 13 13 12 12 12 11 12 12 11 11
7 7 4 4 5 7 7 7 4 7 12 10 9 10 9 8 10 10 8 10 12 13 14 15 13 11 12 13 14 16 16 16 15 13 12 13 15 13 12 12 11 11 11 11 11
7 7 4 4 7 7 8 5 5 6 15 13 11 10 9 9 11 9 8 9 11 14 14 14 12 13 14 14 14 16 14 13 14 16 18 13 19 15 14 13 12 12 12 12 11
7 5 4 4 8 7 6 5 4 7 23 11 11 9 10 11 11 10 9 10 12 13 13 16 15 15 16 15 13 14 13 14 14 16 17 16 18 16 14 14 14 13 12 12 11
7 6 5 7 7 5 5 4 5 15 23 12 11 12 12 11 11 10 10 9 11 13 14 14 13 13 14 13 13 12 13 13 14 15 20 16 17 18 15 14 14 13 12 10 10
7 6 5 5 6 4 5 7 17 21 11 14 14 12 12 13 12 12 12 13 15 18 18 15 15 13 12 14 13 13 14 20 19 21 20 14 16 16 14 12 12 12 11 10 10
7 6 6 3 3 4 6 10 22 15 13 12 12 12 14 13 13 12 13 15 12 14 18 19 21 15 13 14 15 15 14 20 22 21 18 15 18 17 12 11 10 10 10 9 9
7 9 5 4 3 4 9 18 18 13 10 13 13 14 15 13 13 13 14 14 13 12 16 18 18 14 13 13 13 14 17 14 17 16 19 18 16 14 12 12 11 11 10 10 9
8 7 6 4 3 6 13 15 12 8 11 12 14 13 16 14 14 14 14 12 14 11 11 14 19 14 14 13 13 13 12 20 21 26 24 18 18 19 14 13 12 11 11 10 9
9 11 7 4 4 10 16 14 10 9 10 12 13 14 14 14 14 14 14 12 12 12 11 13 18 17 15 16 16 16 17 16 17 18 22 22 19 14 14 13 12 11 10 10 10
10 15 7 5 12 13 14 10 9 10 9 10 11 12 13 13 14 13 14 13 11 12 14 13 17 20 17 14 13 13 14 16 23 23 19 19 19 13 13 12 11 11 9 10 9
12 12 7 6 16 13 10 10 10 11 11 11 11 11 11 13 15 13 13 11 12 12 14 13 18 23 18 16 14 16 16 17 21 18 19 23 20 12 12 12 11 11 10 9 9
12 17 15 11 10 11 12 12 12 10 10 10 11 10 12 13 12 14 14 12 11 12 8 11 15 19 21 19 18 22 18 21 21 23 21 19 17 14 13 13 11 11 10 10 9
13 18 13 15 13 11 12 11 13 13 10 10 12 12 13 15 14 15 13 13 12 11 12 14 19 19 17 13 15 16 16 17 21 20 20 18 16 14 14 13 12 10 10 10 10
15 14 12 11 9 12 12 13 12 11 11 12 13 11 12 14 13 15 14 15 15 14 14 13 19 16 18 14 14 16 15 15 16 17 16 17 17 14 12 12 11 10 9 9 9
9 9 11 10 10 14 14 12 11 10 10 10 11 12 12 11 10 12 12 12 12 15 15 15 18 19 20 16 17 20 16 15 15 15 16 19 16 13 12 11 11 10 10 9 9